Regional Weather Roundup
Issued by NWS

Home | Current Version | Previous Version | Text Only | Print | Product List | Glossary On
Versions: 1 2 3 4 5 6 7 8 9 10 11 12 13 14 15 16 17 18 19 20 21 22 23 24 25 26 27 28 29 30 31 32 33 34 35 36 37 38 39 40 41 42 43 44 45 46 47 48 49 50
000
ASUS43 KFSD 230910
RWRSD

WEATHER ROUNDUP FOR SOUTH DAKOTA
NATIONAL WEATHER SERVICE SIOUX FALLS SD
400 AM CDT FRI JUN 23 2017

NOTE: "FAIR" INDICATES FEW OR NO CLOUDS BELOW 12,000 FEET WITH NO
SIGNIFICANT WEATHER AND/OR OBSTRUCTIONS TO VISIBILITY.


SDZ001>005-009-010-012>017-231000-
NORTHWEST AND NORTH CENTRAL SOUTH DAKOTA

CITY           SKY/WX    TMP DP  RH WIND       PRES   REMARKS
BUFFALO          N/A     53  44  71 NW23      30.08R
FAITH            N/A     51  45  79 NW15      30.07R
MOBRIDGE       MOCLDY    58  48  69 NW16      29.95R
$$

SDZ012>016-024>037-041>051-057-063-072>074-231000-
SOUTHWEST AND SOUTH CENTRAL SOUTH DAKOTA

CITY           SKY/WX    TMP DP  RH WIND       PRES   REMARKS
RAPID CTY ARPT CLOUDY    54  37  52 NW20G30   30.13F
PIERRE         MOCLDY    57  47  69 NW16      30.00R
CUSTER         CLOUDY    49  26  41 NW7       30.17F
ELLSWORTH AFB  CLOUDY    54  38  54 NW22G29   30.13S
PHILIP         CLOUDY    57  44  62 NW22G31   30.09R
PINE RIDGE     LGT RAIN  54  44  69 VRB3      30.16R
SPEARFISH      MOCLDY    52  39  62 W16G24    30.18F
WINNER         FAIR      60  39  45 NW17      30.02R
$$

SDZ004>011-016>023-039-040-231000-
NORTHEAST SOUTH DAKOTA

CITY           SKY/WX    TMP DP  RH WIND       PRES   REMARKS
ABERDEEN       CLEAR     56  46  69 W10       29.88S
WATERTOWN      CLEAR     57  46  66 NW15G24   29.85R
BROOKINGS      CLEAR     56  46  69 NW10      29.86R
SISSETON         N/A     59  47  64 W15       29.80S
$$

SDZ017-020-022-023-036>040-048>070-231000-
SOUTHEAST SOUTH DAKOTA

CITY           SKY/WX    TMP DP  RH WIND       PRES   REMARKS
SIOUX FALLS    CLEAR     58  49  72 W9        29.85R
HURON          CLEAR     55  46  71 NW9       29.91R
CHAMBERLAIN    CLOUDY    61  43  51 NW15      29.97F
MITCHELL       CLEAR     60  43  53 NW16      29.92R
YANKTON        PTCLDY    61  49  64 NW10      29.87S
$$

ABBREVIATIONS USED IN REMARKS
   TC - TEMPERATURE IN CELSIUS
  WCI - WIND CHILL INDEX
   HX - HEAT INDEX
  VSB - VISIBILITY





USA.gov is the U.S. government's official web portal to all federal, state and local government web resources and services.